Wind from 160 at 12 knots gusting 17

Air temperature 3.0° C
Visibility: greater than 5.2 NM
Dewpoint -0.0° C
Present weather: Mist.

Last reported at 2014-Apr-23 22:25 UTC.
Time now 2014-Apr-24 00:17 UTC

Location: N 60°43' W 135°04'.
View on Google Maps.

See reports from other nearby stations

Tides Stations Pressure Air Temp Water Temp Dewpoint Dewpoint depression Visibility Wind Speed Wind Dir Waves Ship positions

  
sailing weather and tide predictions

WHITEHORSE, YK weather

date/time (UTC)wind fromknots sea level pressurealtimeterstation pressurevisibilityair tempwater tempwave heightnotes
2014-Apr-23 23:00 150 8 13.0 4.0 Light rain showers.
2014-Apr-23 22:25 160 12 gusting 17 5.2 3.0 Mist.
2014-Apr-23 22:00 150 7 8.7 4.0
2014-Apr-23 21:00 160 11 13.0 5.0 Light rain showers.
2014-Apr-23 20:00 150 6 13.0 5.0 Light rain showers.
2014-Apr-23 19:43 160 11 13.0 5.0 Light rain showers.
2014-Apr-23 19:00 160 8 21.7 5.0
2014-Apr-23 18:00 150 6 21.7 4.0
2014-Apr-23 17:00 140 2 21.7 3.0
2014-Apr-23 16:00 21.7 2.0
2014-Apr-23 15:00 190 2 21.7 1.0
2014-Apr-23 14:00 17.4 1.0
2014-Apr-23 13:35 17.4 1.0
2014-Apr-23 13:00 170 3 10.4 1.0 Light rain showers.
2014-Apr-23 12:20 180 3 5.2 1.0 Light rain showers. Mist.
2014-Apr-23 12:00 140 3 2.6 1.0 Light rain showers. Mist.
2014-Apr-23 11:00 310 2 5.2 1.0 Mist.
2014-Apr-23 10:00 280 2 3.5 1.0 Mist.
2014-Apr-23 09:00 3.5 1.0 Mist.
2014-Apr-23 08:00 340 4 17.4 1.0
2014-Apr-23 07:00 010 3 17.4 2.0
2014-Apr-23 06:00 310 4 17.4 3.0 Showers in the vicinity.
2014-Apr-23 05:40 310 4 17.4 3.0 Showers in the vicinity.
2014-Apr-23 05:00 340 4 17.4 3.0
2014-Apr-23 04:00 290 3 17.4 4.0
2014-Apr-23 03:00 260 9 17.4 4.0 Light rain showers.
2014-Apr-23 02:00 290 4 17.4 6.0 Light rain showers.
2014-Apr-23 01:22 070 12 gusting 20 17.4 7.0 Light rain showers.
2014-Apr-23 01:00 010 8 gusting 16 17.4 8.0 Showers in the vicinity.
2014-Apr-23 00:00 350 7 34.8 8.0
2014-Apr-22 23:00 360 8 34.8 8.0
2014-Apr-22 22:00 010 7 34.8 8.0
2014-Apr-22 21:00 010 6 34.8 9.0
2014-Apr-22 20:00 050 5 34.8 8.0
2014-Apr-22 19:00 030 5 34.8 7.0
2014-Apr-22 18:00 340 6 34.8 5.0
2014-Apr-22 17:00 360 4 34.8 4.0
2014-Apr-22 16:00 360 6 34.8 3.0
2014-Apr-22 15:00 320 2 34.8 1.0
2014-Apr-22 14:00 34.8-0.0
2014-Apr-22 13:00 260 2 34.8-0.0
2014-Apr-22 12:00 270 3 34.8-0.0
2014-Apr-22 11:00 260 4 34.8-0.0
2014-Apr-22 10:00 34.8 1.0
2014-Apr-22 09:00 230 2 34.8 1.0
2014-Apr-22 08:00 240 3 34.8 2.0
2014-Apr-22 07:00 230 3 34.8 2.0
2014-Apr-22 06:00 290 2 34.8 6.0
2014-Apr-22 05:00 260 7 34.8 7.0
2014-Apr-22 04:00 270 6 34.8 9.0
2014-Apr-22 03:00 270 9 34.810.0
2014-Apr-22 02:00 330 4 34.810.0
2014-Apr-22 01:00 320 7 34.811.0
2014-Apr-22 00:00 260 8 gusting 15 34.811.0